Location: Brotuna
(46.2000°N, 22.6000°E)
Time: 16:26:54
(UTC+00:00)

NOSS 3-4 (C) - Pass Details

Date: 09 April 2020
Orbit: 897 x 1316 km, 63.4° (Epoch: 21 May)

Event Time Altitude Azimuth Distance (km) Brightness Sun altitude
Rises 17:36:42 0° 321° (NW) 3,810 7.7 -5.4°
Reaches altitude 10° 17:39:14 10° 323° (NW) 2,911 7.0 -5.8°
Maximum altitude 17:46:13 78° 50° (NE) 1,186 3.9 -7.0°
Drops below altitude 10° 17:53:56 10° 136° (SE) 3,199 5.6 -8.2°
Enters shadow 17:55:08 - 137° (SE) 3,617 5.9 -8.4°
